Simultaneous Nadir Overpasses (SNOs) Predictions

Prediction of SNOs between LANDSAT-8 and METOP-B Satellite Orbit:

Table of predicted SNOs for the next 14.0 days since TLE Epoch: 4/6/2017
Index Date (LANDSAT-8) Time (LANDSAT-8) Lat,Lon (LANDSAT-8) SZA (LANDSAT-8 ) Date (METOP-B) Time (METOP-B) Lat,Lon (METOP-B) SZA (METOP-B ) Distance(km) Time Diff (sec)
1 04/07/2017 00:49:16 81.10,-153.36 76.19 04/07/2017 00:49:03 81.10,-153.43 76.18 1.20 13
2 04/07/2017 01:38:41 -81.14, 14.92 103.73 04/07/2017 01:39:41 -81.14, 15.00 103.70 1.47 60
3 04/09/2017 20:23:28 81.11, -86.64 75.21 04/09/2017 20:23:23 81.11, -86.71 75.20 1.25 5
4 04/09/2017 21:12:54 -81.13, 81.30 104.76 04/09/2017 21:14:02 -81.14, 81.40 104.72 1.67 68
5 04/12/2017 15:08:17 -81.08, 171.63 105.87 04/12/2017 15:07:06 -81.09, 171.78 105.88 2.68 71
6 04/12/2017 15:57:42 81.11, -20.33 74.18 04/12/2017 15:57:45 81.11, -20.37 74.18 0.76 3
7 04/15/2017 10:42:31 -81.07,-122.06 106.88 04/15/2017 10:41:29 -81.07,-122.23 106.92 2.95 62
8 04/15/2017 11:31:55 81.12, 46.32 73.22 04/15/2017 11:32:06 81.12, 46.33 73.23 0.48 11
9 04/18/2017 06:16:43 -81.08, -55.43 107.82 04/18/2017 06:15:49 -81.08, -55.52 107.86 1.54 54




NCC Satellite Simultaneous Nadir Overpasses (SNOs) Prediction Service
